This demonstration page uses our WeatherBlox Daily Observations layout. Learn more.

Left ArrowRight Arrow

40.92945, -100.16068

Hourly Observations for June 22, 2021

Temp ( °F °C ) Dew Point ( °F °C ) Humidity (%) Winds ( mph kmh ) Pressure ( in mb ) Visibility ( mi km ) Precip ( " mm )
12:15 am 00:15 Clear 56 13.6 51 10.4 81 81 N N/A 29.99 1016 10 16 N/A
12:35 am 00:35 Clear 58 14.2 52 11 81 81 N N/A 29.97 1015 10 16 N/A
12:55 am 00:55 Clear 56 13.3 50 10.1 81 81 N N/A 29.97 1015 10 16 N/A
1:15 am 01:15 Clear 55 13 49 9.7 81 81 S 3 6 29.97 1015 10 16 N/A
1:35 am 01:35 Clear 56 13.6 51 10.4 81 81 N N/A 29.97 1015 10 16 N/A
1:55 am 01:55 Clear 54 12.2 49 9.2 82 82 N N/A 29.97 1015 10 16 N/A
2:15 am 02:15 Clear 54 12 49 9.6 85 85 N N/A 29.96 1015 7 11 N/A
2:35 am 02:35 Clear 55 12.5 49 9.7 83 83 S 3 6 29.96 1015 10 16 N/A
2:55 am 02:55 Clear 55 12.9 49 9.7 81 81 S 3 6 29.94 1014 10 16 N/A
3:15 am 03:15 Clear 55 13 50 9.9 82 82 S 5 7 29.93 1014 10 16 N/A
3:35 am 03:35 Clear 58 14.3 52 10.9 80 80 S 7 11 29.92 1013 10 16 N/A
3:55 am 03:55 Clear 60 15.3 52 11.1 76 76 S 8 13 29.90 1013 10 16 N/A
4:15 am 04:15 Clear 60 15.3 52 11.2 77 77 S 10 17 29.89 1012 10 16 N/A
4:35 am 04:35 Clear 59 14.8 52 11.1 79 79 SSW 8 13 29.90 1012 10 16 N/A
4:55 am 04:55 Clear 58 14.5 52 11.2 81 81 SSW 8 13 29.89 1012 10 16 N/A
5:15 am 05:15 Clear 59 15.2 52 11.3 78 78 SSW 7 11 29.88 1012 10 16 N/A
5:35 am 05:35 Clear 58 14.5 52 11.1 80 80 S 6 9 29.89 1012 10 16 N/A
5:55 am 05:55 Clear 56 13.5 52 11 85 85 S 7 11 29.89 1012 10 16 N/A
6:15 am 06:15 Sunny 57 13.7 52 11.3 86 86 SSW 7 11 29.89 1012 10 16 N/A
6:35 am 06:35 Sunny 59 15 53 11.6 80 80 SW 6 9 29.88 1012 10 16 N/A
6:55 am 06:55 Sunny 61 16.2 54 12 76 76 SSW 9 15 29.88 1012 10 16 N/A
7:15 am 07:15 Sunny 64 17.5 54 12.1 71 71 SW 10 17 29.86 1011 10 16 N/A
7:35 am 07:35 Sunny 65 18.6 54 12.1 66 66 SW 10 17 29.84 1011 10 16 N/A
7:55 am 07:55 Sunny 67 19.5 54 12.3 63 63 SW 9 15 29.84 1010 10 16 N/A
8:15 am 08:15 Sunny 69 20.3 55 12.5 61 61 SW 8 13 29.83 1010 10 16 N/A
8:35 am 08:35 Sunny 70 21 54 12.4 58 58 SW 10 17 29.82 1010 10 16 N/A
8:55 am 08:55 Sunny 72 22.1 55 12.6 55 55 SW 12 19 29.80 1009 10 16 N/A
9:15 am 09:15 Sunny 73 22.8 55 12.9 54 54 SW 13 20 29.80 1009 10 16 N/A
9:35 am 09:35 Sunny 74 23.5 56 13.2 53 53 SW 15 24 29.78 1009 10 16 N/A
9:55 am 09:55 Sunny 76 24.3 56 13.3 50 50 SW 17 28 29.77 1008 10 16 N/A
10:15 am 10:15 Sunny 77 24.8 56 13.1 48 48 SSW 22 35 29.75 1008 10 16 N/A
10:35 am 10:35 Sunny 78 25.8 56 13.5 47 47 SSW 18 30 29.74 1007 10 16 N/A
10:55 am 10:55 Sunny 80 26.5 56 13.4 44 44 SSW 24 39 29.73 1007 10 16 N/A
11:15 am 11:15 Sunny 81 27.2 56 13.5 43 43 SSW 21 33 29.71 1006 10 16 N/A
11:35 am 11:35 Sunny 82 28 57 14 42 42 SSW 23 37 29.70 1006 10 16 N/A
11:55 am 11:55 Sunny 82 27.8 57 13.9 42 42 SSW 18 30 29.70 1006 10 16 N/A
12:15 pm 12:15 Sunny 83 28.4 57 14.1 42 42 SSW 20 31 29.69 1006 10 16 N/A
12:35 pm 12:35 Sunny 84 28.7 58 14.3 41 41 SSW 22 35 29.69 1005 10 16 N/A
12:55 pm 12:55 Sunny 84 29.1 58 14.5 41 41 SW 17 28 29.68 1005 10 16 N/A
1:15 pm 13:15 Sunny 85 29.3 58 14.5 40 40 SSW 20 31 29.67 1005 10 16 N/A
1:35 pm 13:35 Sunny 87 30.3 59 15.2 40 40 SSW 16 26 29.65 1004 10 16 N/A
1:55 pm 13:55 Sunny 87 30.3 59 14.8 39 39 SSW 16 26 29.65 1004 10 16 N/A
2:15 pm 14:15 Sunny 87 30.8 59 15.2 39 39 SSW 20 31 29.63 1004 10 16 N/A
2:35 pm 14:35 Sunny 88 30.9 59 15.1 38 38 SSW 20 31 29.62 1003 10 16 N/A
2:55 pm 14:55 Sunny 90 32.1 59 15.2 36 36 SSW 15 24 29.60 1002 10 16 N/A
3:15 pm 15:15 Sunny 90 32.3 59 15.1 35 35 SSW 21 33 29.59 1002 10 16 N/A
3:35 pm 15:35 Sunny 91 32.6 60 15.3 35 35 SSW 16 26 29.59 1002 10 16 N/A
3:55 pm 15:55 Sunny 91 32.9 60 15.3 35 35 SSW 20 31 29.58 1002 10 16 N/A
4:15 pm 16:15 Sunny 92 33.1 60 15.3 34 34 SSW 13 20 29.58 1002 10 16 N/A
4:35 pm 16:35 Sunny 92 33.1 60 15.4 34 34 SSW 15 24 29.58 1002 10 16 N/A
4:55 pm 16:55 Sunny 92 33.2 60 15.4 34 34 SW 13 20 29.57 1001 10 16 N/A
5:15 pm 17:15 Sunny 92 33.5 60 15.3 33 33 SSW 12 19 29.56 1001 10 16 N/A
5:35 pm 17:35 Sunny 92 33.5 60 15.5 34 34 S 10 17 29.56 1001 10 16 N/A
5:55 pm 17:55 Sunny 92 33.3 60 15.5 34 34 SSW 10 17 29.55 1001 10 16 N/A
6:15 pm 18:15 Sunny 92 33.5 61 15.9 35 35 S 12 19 29.55 1001 10 16 N/A
6:35 pm 18:35 Sunny 92 33.1 60 15.8 35 35 SSW 12 19 29.55 1001 10 16 N/A
6:55 pm 18:55 Sunny 91 32.9 61 16.1 36 36 S 10 17 29.54 1000 10 16 N/A
7:15 pm 19:15 Sunny 90 32.4 62 16.5 38 38 S 12 19 29.54 1000 10 16 N/A
7:35 pm 19:35 Sunny 90 32 61 15.9 38 38 S 12 19 29.54 1001 10 16 N/A
7:55 pm 19:55 Sunny 89 31.5 61 16 39 39 S 9 15 29.55 1001 10 16 N/A
8:15 pm 20:15 Sunny 87 30.4 62 16.7 44 44 S 9 15 29.56 1001 10 16 N/A
8:35 pm 20:35 Sunny 85 29.4 62 16.8 47 47 S 7 11 29.58 1002 10 16 N/A
8:55 pm 20:55 Sunny 83 28.1 62 16.6 50 50 SSE 7 11 29.59 1002 10 16 N/A
9:15 pm 21:15 Clear 81 27.1 62 16.6 53 53 SSE 8 13 29.59 1002 10 16 N/A
9:35 pm 21:35 Clear 80 26.8 61 16.2 52 52 SSE 8 13 29.61 1003 10 16 N/A
9:55 pm 21:55 Clear 79 26.2 61 16 53 53 SSE 9 15 29.61 1003 10 16 N/A
10:15 pm 22:15 Clear 79 26.1 60 15.5 52 52 SSE 10 17 29.61 1003 10 16 N/A
10:35 pm 22:35 Clear 79 26.1 59 15.1 51 51 SE 13 20 29.62 1003 10 16 N/A
10:55 pm 22:55 Clear 78 25.3 58 14.5 51 51 SSE 13 20 29.63 1003 10 16 N/A
11:15 pm 23:15 Clear 77 25.1 56 13.6 49 49 SSE 16 26 29.63 1003 10 16 N/A
11:35 pm 23:35 Clear 78 25.3 55 12.8 46 46 S 17 28 29.63 1003 10 16 N/A
11:55 pm 23:55 Clear 77 25 55 12.5 46 46 S 15 24 29.64 1004 10 16 N/A

Powered by AerisWeather